Regional Weather Roundup
Issued by NWS Little Rock, AR

Home | Current Version | Previous Version | Graphics & Text | Print | Product List | Glossary On
Versions: 1 2 3 4 5 6 7 8 9 10 11 12 13 14 15 16 17 18 19 20 21 22 23 24 25 26 27 28 29 30 31 32 33 34 35 36 37 38 39 40 41 42 43 44 45 46 47 48 49 50
321
ASUS44 KLZK 192105
RWRLZK

WEATHER ROUNDUP FOR ARKANSAS
NATIONAL WEATHER SERVICE LITTLE ROCK AR
400 PM CDT TUE SEP 19 2017

NOTE: "FAIR" INDICATES FEW OR NO CLOUDS BELOW 12,000 FEET WITH NO
SIGNIFICANT WEATHER AND/OR OBSTRUCTIONS TO VISIBILITY.

ARZ001-003-010-029-192200-
NORTHWEST ARKANSAS

CITY           SKY/WX    TMP DP  RH WIND       PRES   REMARKS
FAYETTEVILLE   CLOUDY    84  71  65 S9        29.87F HX  89
FORT SMITH     MOSUNNY   91  70  49 S8        29.82F HX  96
HARRISON       SUNNY     88  64  44 S9        29.89F HX  89
BENTONVILLE    MOSUNNY   86  69  56 S12       29.88F HX  90
ROGERS         PTSUNNY   88  69  53 SW14      29.87F HX  92
SILOAM SPGS    MOSUNNY   86  68  54 S13       29.87F HX  89
HIGHFILL       MOSUNNY   87  69  54 S14       29.87F HX  91
SPRINGDALE     PTSUNNY   84  66  54 S14G20    29.89F HX  86
$$

ARZ004-005-016-192200-
NORTH CENTRAL ARKANSAS

CITY           SKY/WX    TMP DP  RH WIND       PRES   REMARKS
BATESVILLE     MOSUNNY  N/A N/A N/A SW9       29.88F
FLIPPIN        MOSUNNY   92  66  42 VRB7      29.86F HX  94
MTN HOME       MOSUNNY   91  63  39 SW9       29.86F HX  92
$$

ARZ040-041-192200-
WEST CENTRAL ARKANSAS

CITY           SKY/WX    TMP DP  RH WIND       PRES   REMARKS
MENA           MOSUNNY   90  72  55 CALM      29.89F HX  96
MOUNT IDA      MOSUNNY   90  67  46 VRB3      29.86F HX  93
$$

ARZ009-017-025-026-028-192200-
NORTHEAST ARKANSAS

CITY           SKY/WX    TMP DP  RH WIND       PRES   REMARKS
JONESBORO      SUNNY     90  72  55 SW9       29.87F HX  97
NEWPORT        SUNNY     91  70  49 S12       29.88F HX  96
BLYTHEVILLE    MOSUNNY   90  73  57 NW8       29.88F HX  98
$$

ARZ022-023-033-042-044-192200-
CENTRAL ARKANSAS

CITY           SKY/WX    TMP DP  RH WIND       PRES   REMARKS
LITTLE ROCK    MOSUNNY   89  72  56 SE9       29.87F HX  96
N LITTLE ROCK    N/A     91  72  53 S6        29.87F HX  98
JACKSONVILLE   SUNNY     92  72  52 S7        29.86F HX 100
CONWAY           N/A     91  70  49 S9        29.84F HX  97
SEARCY         SUNNY     92  73  53 S9        29.88F HX 100
HOT SPRINGS    MOSUNNY   93  71  48 S9G17     29.87F HX 100
RUSSELLVILLE   MOSUNNY   93  66  40 S7        29.83F HX  96
CLINTON        FAIR      90  68  48 VRB7      29.87F HAZE    HX  93
$$

ARZ036-192200-
EAST ARKANSAS

CITY           SKY/WX    TMP DP  RH WIND       PRES   REMARKS
WEST MEMPHIS   MOSUNNY   90  72  55 S6        29.88F HX  97
$$

ARZ050-053-066-070-073-192200-
SOUTHWEST ARKANSAS

CITY           SKY/WX    TMP DP  RH WIND       PRES   REMARKS
ARKADELPHIA    MOCLDY    88  74  63 SW8       29.88F HX  96
CAMDEN         SUNNY     90  72  55 S8G15     29.89S HX  96
TEXARKANA      SUNNY     87  72  60 S9        29.88F HX  93
EL DORADO      MOSUNNY   87  73  62 SW6       29.91F HX  94
$$

ARZ056-057-069-192200-
SOUTHEAST ARKANSAS

CITY           SKY/WX    TMP DP  RH WIND       PRES   REMARKS
PINE BLUFF     SUNNY     89  72  56 SW7       29.88F HX  96
STUTTGART      SUNNY     91  71  51 SW10      29.88F HX  97
MONTICELLO     MOSUNNY   90  72  55 SW6       29.89F HX  97

$$






USA.gov is the U.S. government's official web portal to all federal, state and local government web resources and services.